This is the latest recevied weather packets stored in our database for station/object ED3YAB-7. If no packets are shown the sender has not sent any weather packets the latest 10 day(s).
| Time | Temp. | Humidity | Pressure | Rain* | Wind** | Luminosity | Snow |
|---|---|---|---|---|---|---|---|
| 1777913851 | 18.89° C | 51% | 1015.9 hPa | - | - | - | - |
| 1777912651 | 21.67° C | 45% | 1015.9 hPa | - | - | - | - |
| 1777911459 | 24.44° C | 42% | 1015.8 hPa | - | - | - | - |
| 1777911451 | 24.44° C | 42% | 1015.8 hPa | - | - | - | - |
| 1777910258 | 24.44° C | 43% | 1016.1 hPa | - | - | - | - |
| 1777910251 | 24.44° C | 43% | 1016.1 hPa | - | - | - | - |
| 1777909058 | 20° C | 51% | 1016.3 hPa | - | - | - | - |
| 1777909051 | 20° C | 51% | 1016.3 hPa | - | - | - | - |
| 1777907851 | 19.44° C | 54% | 1016.4 hPa | - | - | - | - |
| 1777906658 | 18.33° C | 57% | 1016.5 hPa | - | - | - | - |
| 1777906650 | 18.33° C | 57% | 1016.5 hPa | - | - | - | - |
| 1777905450 | 17.22° C | 58% | 1016.7 hPa | - | - | - | - |
| 1777904258 | 18.33° C | 56% | 1016.7 hPa | - | - | - | - |
| 1777904250 | 18.33° C | 56% | 1016.7 hPa | - | - | - | - |
| 1777903058 | 19.44° C | 53% | 1016.7 hPa | - | - | - | - |
| 1777903050 | 19.44° C | 53% | 1016.7 hPa | - | - | - | - |
| 1777901850 | 19.44° C | 50% | 1016.9 hPa | - | - | - | - |
| 1777900650 | 21.11° C | 49% | 1016.9 hPa | - | - | - | - |
| 1777899450 | 21.67° C | 50% | 1016.5 hPa | - | - | - | - |
| 1777898249 | 20.56° C | 52% | 1016.5 hPa | - | - | - | - |
| 1777897049 | 23.89° C | 45% | 1016.3 hPa | - | - | - | - |
| 1777895857 | 23.89° C | 43% | 1016.6 hPa | - | - | - | - |
| 1777895849 | 23.89° C | 43% | 1016.6 hPa | - | - | - | - |
| 1777894656 | 22.22° C | 46% | 1016.6 hPa | - | - | - | - |
| 1777894649 | 22.22° C | 46% | 1016.6 hPa | - | - | - | - |
* Rain since midnight (hover to see other rain measurements)
** Current wind speed in m/s (hover to see current wind gust speed)